Regional Weather Roundup
Issued by NWS Boston, MA

Current Version | Previous Version | Text Only | Print | Product List | Glossary On
Versions: 1 2 3 4 5 6 7 8 9 10 11 12 13 14 15 16 17 18 19 20 21 22 23 24 25 26 27 28 29 30 31 32 33 34 35 36 37 38 39 40 41 42 43 44 45 46 47 48 49 50
187 ASUS41 KBOX 240910 RWRBOX REGIONAL WEATHER ROUNDUP NATIONAL WEATHER SERVICE TAUNTON MA 500 AM EDT SAT JUN 24 2017 NOTE: "FAIR" INDICATES FEW OR NO CLOUDS BELOW 12,000 FEET WITH NO SIGNIFICANT WEATHER AND/OR OBSTRUCTIONS TO VISIBILITY. MAZALL-241000- EASTERN MASSACHUSETTS CITY SKY/WX TMP DP RH WIND PRES REMARKS BOSTON MOCLDY 71 70 96 S13 29.52S BEVERLY MOCLDY 73 71 93 S6 29.51S LAWRENCE CLOUDY 76 73 91 SW8 29.52S BEDFORD CLOUDY 74 69 85 SW12 29.51R BLUE HILL N/A 71 69 93 SW15G22 29.55S NORWOOD CLOUDY 74 72 93 CALM 29.53S MARSHFIELD PTCLDY 73 72 94 SW12G17 29.54S PLYMOUTH MOCLDY 71 68 90 S10G18 29.58S TAUNTON CLOUDY 72 68 87 S13 29.56S NEW BEDFORD MOCLDY 70 68 93 SW15 29.58S $$ MAZALL-241000- CAPE COD AND THE ISLANDS CITY SKY/WX TMP DP RH WIND PRES REMARKS FALMOUTH NOT AVBL HYANNIS CLOUDY 70 68 93 SW15G26 29.59F FOG CHATHAM CLOUDY 68 68 100 SW13G23 29.63S FOG PROVINCETOWN CLOUDY 68 66 93 SW18G25 29.58S FOG NANTUCKET CLOUDY 66 66 100 SW18G25 29.64S FOG MARTHAS VNYRD CLOUDY 67 66 97 SW16 29.62S FOG $$ MAZALL-241000- CENTRAL AND WESTERN MASSACHUSETTS CITY SKY/WX TMP DP RH WIND PRES REMARKS WORCESTER CLOUDY 72 68 87 SW12G24 29.58R FITCHBURG CLOUDY 79 71 76 SW6 29.53S ORANGE PTCLDY 73 72 96 SW9 29.54R SPRINGFIELD MOCLDY 75 69 81 SW12 29.54R WESTFIELD CLOUDY 74 72 93 S9 N/A NORTH ADAMS LGT RAIN 72 69 90 VRB3 29.54R PITTSFIELD LGT RAIN 70 68 93 SW5 29.56S $$ RIZALL-241000- RHODE ISLAND CITY SKY/WX TMP DP RH WIND PRES REMARKS PROVIDENCE PTCLDY 74 72 93 SW12 29.57S NEWPORT CLOUDY 67 67 100 S9 29.59F FOG BLOCK ISLAND CLOUDY 66 65 96 SW13 29.62S FOG WESTERLY MOCLDY 71 68 90 SW9 29.60S $$ CTZALL-241000- CONNECTICUT CITY SKY/WX TMP DP RH WIND PRES REMARKS BRADLEY INTL CLOUDY 75 71 87 S10 29.56R HARTFORD CLOUDY 76 71 85 SW7 29.56S BRIDGEPORT CLOUDY 72 69 90 SW7 29.58F DANBURY LGT RAIN 72 71 97 SW6 29.60F GROTON MOCLDY 70 67 90 SW7 29.58S NEW HAVEN NOT AVBL CHESTER FAIR 73 72 94 VRB6 29.59F MERIDEN MOCLDY 74 70 87 S5 29.58S WILLIMANTIC LGT RAIN 77 72 84 SW9 29.58R OXFORD CLOUDY 73 66 78 W5 29.61S $$ MEZ002-015-021-024-NHZ003-005-008-011-012-014-VTZ005-008-241000- NORTHERN NEW ENGLAND CITY SKY/WX TMP DP RH WIND PRES REMARKS PORTLAND ME CLOUDY 65 63 93 S6 29.46F BANGOR ME FOG 65 64 97 S6 29.46F VSB 3/4 CONCORD NH CLOUDY 72 71 97 S7 29.49S MANCHESTER NH MOCLDY 75 70 84 SW8 29.49R NASHUA NH CLOUDY 75 72 90 VRB3 29.51S PORTSMOUTH NH MOCLDY 75 71 89 SW9 29.47R JAFFREY NH CLOUDY 73 72 96 SW9 29.55R KEENE NH CLOUDY 71 70 96 CALM 29.53R BURLINGTON VT LGT RAIN 70 69 97 S3 29.48R MT. WASHINGTON LGT RAIN 55 55 100 W39 N/A VSB 1/16 $$ NYZ052-076-241000- EASTERN NEW YORK CITY SKY/WX TMP DP RH WIND PRES REMARKS ALBANY RAIN 72 67 84 W8 29.54R NEW YORK CITY CLOUDY 74 71 91 NW9 29.60R $$ ANZALL-241000- MARINE OBSERVATIONS STATION/POSITION TIME TEMP WIND PRES VSBY WAVE AIR SEA DIR/SP/G HT/PER (UTC) (F) (DEG/KT/KT) (MB) (MI) (FT/S) BOSTON BUOY 0850 64 57 190/ 8/ 10 1000.3R 2/ 3 BUZZARDS BAY 0800 65 210/ 21/ 23 1002.6F NANTUCKET SOUND 0850 63 1002.4F 2/ 4 MASS BAY-STELLWA 0804 64 59 190/ 14/ 16 998.9F 3/ 5 ISLE OF SHOALS 0800 67 180/ 23/ 24 998.2F S OF BLOCK IS 0855 63 N/A 7/ 7 $$ ......................KEY......................... SKY/WX - SKY CONDITION/PRESENT WEATHER TMP - TEMPERATURE IN FAHRENHEIT DWPT - DEWPOINT IN FAHRENHEIT RH - RELATIVE HUMIDITY IN PERCENT WIND - DIRECTION AND SPEED IN MPH PRES - MEAN SEA LEVEL PRESSURE IN INCHES OF HG WCI - WIND CHILL INDEX VSB - VISIBILITY IN MILES HX - HEAT INDEX TC - TEMPERATURE IN CELSIUS VRB - VARIABLE WIND DIRECTION N/A - NOT AVAILABLE

USA.gov is the U.S. government's official web portal to all federal, state and local government web resources and services.